Location: Unspecified
(0.0000°N, 0.0000°E)
Time: 06:29:11
(UTC+00:00)

Explorer 11/Cluster Stage 4 - Pass Details

Date: 21 November 2019
Orbit: 467 x 1259 km, 28.8° (Epoch: 11 December)

Event Time Altitude Azimuth Distance (km) Brightness Sun altitude
Exits shadow 04:49:25 12° 261° (W) 3,049 9.1 -13.2°
Maximum altitude 04:55:21 26° 210° (SSW) 2,069 8.6 -11.8°
Drops below altitude 10° 05:01:10 10° 156° (SSE) 2,840 10.1 -10.5°
Sets 05:04:10 0° 143° (SE) 3,662 11.1 -9.8°
